| time (UTC) | temp F | wind direction | speed MPH | gust MPH | rain 1hr in | rain 24hr in | rain mn in | humidity % | barometer mb |
| 20260905090022 | 54 | 0.0 | 0.0 | 0.00 | 0.00 | 0.00 | 91 | 1016.2 | |
| 20260905083018 | 54 | 0.0 | 0.0 | 0.00 | 0.00 | 0.00 | 91 | 1016.1 | |
| 20260905080017 | 55 | 0.0 | 0.0 | 0.00 | 0.00 | 0.00 | 90 | 1016.1 | |
| 20260905073022 | 55 | 0.0 | 0.0 | 0.00 | 0.00 | 0.00 | 89 | 1016.0 | |
| 20260905070017 | 56 | 0.0 | 0.0 | 0.00 | 0.02 | 0.00 | 87 | 1015.8 | |
| 20260905063021 | 57 | 0.0 | 0.0 | 0.00 | 0.02 | 0.00 | 87 | 1015.7 | |
| 20260905060016 | 58 | 0.0 | 0.0 | 0.00 | 0.02 | 0.00 | 84 | 1015.4 | |
| 20260905053021 | 59 | 0.0 | 1.0 | 0.00 | 0.02 | 0.00 | 82 | 1015.2 | |
| 20260905050016 | 60 | 0.0 | 1.0 | 0.00 | 0.02 | 0.00 | 80 | 1015.3 | |
| 20260905043021 | 60 | 0.0 | 2.0 | 0.00 | 0.02 | 0.00 | 79 | 1015.2 | |
| 20260905040021 | 61 | 0.0 | 4.0 | 0.00 | 0.02 | 0.00 | 77 | 1015.4 | |
| 20260905033015 | 61 | 90 | 1.0 | 4.0 | 0.00 | 0.02 | 0.00 | 76 | 1015.3 |
| 20260905030015 | 62 | 0.0 | 2.0 | 0.00 | 0.03 | 0.00 | 74 | 1015.0 | |
| 20260905023016 | 63 | 0.0 | 2.0 | 0.00 | 0.03 | 0.00 | 73 | 1014.8 | |
| 20260905020015 | 64 | 90 | 1.0 | 4.0 | 0.00 | 0.09 | 0.00 | 71 | 1014.7 |
| 20260905013023 | 65 | 0.0 | 2.0 | 0.00 | 0.09 | 0.00 | 70 | 1014.7 | |
| 20260905010022 | 68 | 0.0 | 3.0 | 0.00 | 0.09 | 0.00 | 64 | 1014.1 | |
| 20260905003017 | 68 | 0.0 | 3.0 | 0.00 | 0.09 | 0.00 | 64 | 1013.7 | |
| 20260905000017 | 69 | 0.0 | 2.0 | 0.00 | 0.09 | 0.00 | 57 | 1013.5 | |
| 20260904233022 | 68 | 0.0 | 3.0 | 0.00 | 0.09 | 0.00 | 57 | 1013.5 | |
| 20260904230017 | 68 | 270 | 1.0 | 7.0 | 0.00 | 0.09 | 0.00 | 59 | 1013.3 |
| 20260904223017 | 67 | 270 | 1.0 | 6.0 | 0.00 | 0.09 | 0.00 | 61 | 1013.1 |
| 20260904220017 | 66 | 270 | 1.0 | 6.0 | 0.00 | 0.09 | 0.00 | 63 | 1013.1 |
| 20260904213022 | 66 | 270 | 1.0 | 6.0 | 0.00 | 0.09 | 0.00 | 67 | 1013.0 |
| 20260904210017 | 65 | 0.0 | 5.0 | 0.00 | 0.09 | 0.00 | 70 | 1013.1 | |
| 20260904203022 | 64 | 0.0 | 3.0 | 0.00 | 0.09 | 0.00 | 70 | 1013.2 | |
| 20260904200021 | 63 | 0.0 | 2.0 | 0.00 | 0.09 | 0.00 | 74 | 1013.2 | |
| 20260904193016 | 62 | 0.0 | 3.0 | 0.00 | 0.09 | 0.00 | 77 | 1013.1 | |
| 20260904190021 | 61 | 0.0 | 4.0 | 0.00 | 0.09 | 0.00 | 80 | 1013.3 | |
| 20260904183021 | 60 | 0.0 | 2.0 | 0.00 | 0.09 | 0.00 | 80 | 1013.3 | |
| 20260904180016 | 59 | 0.0 | 2.0 | 0.00 | 0.09 | 0.00 | 87 | 1013.3 | |
| 20260904173021 | 57 | 0.0 | 1.0 | 0.00 | 0.09 | 0.00 | 90 | 1013.4 | |
| 20260904170021 | 57 | 0.0 | 2.0 | 0.00 | 0.09 | 0.00 | 92 | 1013.2 | |
| 20260904163024 | 56 | 0.0 | 1.0 | 0.00 | 0.09 | 0.00 | 94 | 1013.4 | |
| 20260904160022 | 55 | 0.0 | 0.0 | 0.00 | 0.09 | 0.00 | 95 | 1013.1 | |
| 20260904153016 | 55 | 0.0 | 0.0 | 0.00 | 0.09 | 0.00 | 96 | 1013.0 | |
| 20260904150024 | 53 | 0.0 | 0.0 | 0.00 | 0.09 | 0.00 | 95 | 1012.7 | |
| 20260904143016 | 53 | 0.0 | 0.0 | 0.00 | 0.09 | 0.00 | 95 | 1012.4 | |
| 20260904140024 | 53 | 0.0 | 0.0 | 0.00 | 0.10 | 0.00 | 95 | 1012.2 | |
| 20260904133021 | 52 | 0.0 | 0.0 | 0.00 | 0.10 | 0.00 | 95 | 1011.9 | |
| 20260904130015 | 53 | 0.0 | 0.0 | 0.00 | 0.13 | 0.00 | 95 | 1011.5 | |
| 20260904123021 | 53 | 0.0 | 0.0 | 0.00 | 0.13 | 0.00 | 95 | 1011.6 | |
| 20260904120017 | 53 | 0.0 | 0.0 | 0.00 | 0.13 | 0.00 | 95 | 1011.1 | |
| 20260904113022 | 53 | 0.0 | 0.0 | 0.00 | 0.13 | 0.00 | 94 | 1010.8 | |
| 20260904110018 | 53 | 0.0 | 0.0 | 0.00 | 0.13 | 0.00 | 94 | 1010.7 | |
| 20260904103022 | 54 | 0.0 | 0.0 | 0.00 | 0.13 | 0.00 | 94 | 1010.7 | |
| 20260904100018 | 54 | 0.0 | 0.0 | 0.00 | 0.14 | 0.00 | 94 | 1010.6 | |
| 20260904093017 | 54 | 0.0 | 0.0 | 0.00 | 0.14 | 0.00 | 94 | 1010.7 |